| time (UTC) | temp F | wind direction | speed MPH | gust MPH | rain 1hr in | rain 24hr in | rain mn in | humidity % | barometer mb |
| 20260510071043 | 50 | 301 | 0.0 | 1.0 | 0.00 | 0.00 | 0.00 | 99 | 1012.6 |
| 20260510070539 | 50 | 89 | 0.0 | 2.0 | 0.00 | 0.00 | 0.00 | 99 | 1012.7 |
| 20260510070037 | 50 | 107 | 0.0 | 2.0 | 0.00 | 0.00 | 0.00 | 99 | 1012.9 |
| 20260510065533 | 50 | 229 | 0.0 | 1.0 | 0.00 | 0.00 | 0.00 | 99 | 1013.0 |
| 20260510065029 | 50 | 89 | 0.0 | 1.0 | 0.00 | 0.00 | 0.00 | 99 | 1012.9 |
| 20260510064526 | 50 | 245 | 0.0 | 1.0 | 0.00 | 0.00 | 0.00 | 99 | 1013.0 |
| 20260510064022 | 50 | 248 | 0.0 | 2.0 | 0.00 | 0.00 | 0.00 | 99 | 1013.0 |
| 20260510063519 | 50 | 246 | 1.0 | 2.0 | 0.00 | 0.00 | 0.00 | 99 | 1013.0 |
| 20260510063017 | 50 | 235 | 2.0 | 3.0 | 0.00 | 0.00 | 0.00 | 99 | 1013.0 |
| 20260510062512 | 50 | 248 | 1.0 | 2.0 | 0.00 | 0.00 | 0.00 | 99 | 1012.9 |
| 20260510062007 | 50 | 248 | 0.0 | 2.0 | 0.00 | 0.00 | 0.00 | 99 | 1013.1 |
| 20260510061505 | 50 | 323 | 3.0 | 3.0 | 0.00 | 0.00 | 0.00 | 99 | 1012.6 |
| 20260510061001 | 50 | 249 | 0.0 | 2.0 | 0.00 | 0.00 | 0.00 | 99 | 1012.6 |
| 20260510060458 | 50 | 250 | 1.0 | 2.0 | 0.00 | 0.00 | 0.00 | 99 | 1012.6 |
| 20260510055953 | 50 | 209 | 1.0 | 3.0 | 0.00 | 0.00 | 0.00 | 99 | 1012.5 |
| 20260510055449 | 50 | 247 | 2.0 | 2.0 | 0.00 | 0.00 | 0.00 | 99 | 1012.7 |
| 20260510054948 | 50 | 154 | 0.0 | 2.0 | 0.00 | 0.00 | 0.00 | 99 | 1012.6 |
| 20260510054443 | 50 | 231 | 1.0 | 2.0 | 0.00 | 0.00 | 0.00 | 99 | 1012.7 |
| 20260510053938 | 50 | 235 | 1.0 | 2.0 | 0.00 | 0.00 | 0.00 | 99 | 1012.7 |
| 20260510053434 | 50 | 237 | 2.0 | 2.0 | 0.00 | 0.00 | 0.00 | 99 | 1012.7 |
| 20260510052930 | 50 | 215 | 2.0 | 2.0 | 0.00 | 0.00 | 0.00 | 99 | 1013.0 |
| 20260510052426 | 50 | 236 | 2.0 | 2.0 | 0.00 | 0.00 | 0.00 | 99 | 1013.0 |
| 20260510051922 | 50 | 251 | 2.0 | 2.0 | 0.00 | 0.00 | 0.00 | 99 | 1012.7 |
| 20260510051419 | 50 | 299 | 1.0 | 2.0 | 0.00 | 0.00 | 0.00 | 99 | 1012.7 |
| 20260510050915 | 50 | 239 | 2.0 | 2.0 | 0.00 | 0.00 | 0.00 | 99 | 1012.7 |
| 20260510050412 | 50 | 269 | 1.0 | 4.0 | 0.00 | 0.00 | 0.00 | 99 | 1012.7 |
| 20260510045909 | 50 | 215 | 2.0 | 2.0 | 0.00 | 0.00 | 0.00 | 99 | 1012.5 |
| 20260510045406 | 50 | 232 | 1.0 | 2.0 | 0.00 | 0.00 | 0.00 | 99 | 1012.4 |
| 20260510044903 | 50 | 245 | 0.0 | 5.0 | 0.00 | 0.00 | 0.00 | 99 | 1012.5 |
| 20260510044400 | 50 | 251 | 2.0 | 3.0 | 0.00 | 0.00 | 0.00 | 99 | 1012.1 |
| 20260510043857 | 50 | 181 | 0.0 | 3.0 | 0.00 | 0.00 | 0.00 | 99 | 1012.4 |
| 20260510043352 | 50 | 224 | 0.0 | 3.0 | 0.00 | 0.00 | 0.00 | 99 | 1012.5 |
| 20260510042851 | 50 | 269 | 0.0 | 5.0 | 0.00 | 0.00 | 0.00 | 99 | 1012.5 |
| 20260510042346 | 50 | 233 | 4.0 | 5.0 | 0.00 | 0.00 | 0.00 | 99 | 1012.3 |
| 20260510041843 | 50 | 236 | 3.0 | 3.0 | 0.00 | 0.00 | 0.00 | 99 | 1012.2 |
| 20260510041340 | 49 | 248 | 2.0 | 2.0 | 0.00 | 0.00 | 0.00 | 99 | 1012.3 |
| 20260510040837 | 49 | 226 | 2.0 | 2.0 | 0.00 | 0.00 | 0.00 | 99 | 1012.1 |
| 20260510040334 | 49 | 282 | 1.0 | 2.0 | 0.00 | 0.00 | 0.00 | 99 | 1012.1 |
| 20260510035829 | 49 | 293 | 0.0 | 1.0 | 0.00 | 0.35 | 0.35 | 99 | 1012.2 |
| 20260510035326 | 49 | 265 | 1.0 | 2.0 | 0.00 | 0.35 | 0.35 | 99 | 1012.2 |
| 20260510034821 | 49 | 94 | 2.0 | 2.0 | 0.00 | 0.35 | 0.35 | 99 | 1012.3 |
| 20260510034319 | 49 | 212 | 0.0 | 1.0 | 0.00 | 0.35 | 0.35 | 99 | 1012.1 |
| 20260510033815 | 49 | 221 | 0.0 | 2.0 | 0.00 | 0.35 | 0.35 | 99 | 1012.0 |
| 20260510033313 | 48 | 281 | 1.0 | 1.0 | 0.00 | 0.35 | 0.35 | 99 | 1012.2 |
| 20260510032809 | 49 | 237 | 0.0 | 2.0 | 0.00 | 0.35 | 0.35 | 99 | 1012.1 |
| 20260510032306 | 48 | 246 | 0.0 | 2.0 | 0.00 | 0.35 | 0.35 | 99 | 1012.0 |
| 20260510031801 | 48 | 304 | 0.0 | 2.0 | 0.00 | 0.35 | 0.35 | 99 | 1012.2 |
| 20260510031258 | 48 | 224 | 0.0 | 2.0 | 0.00 | 0.35 | 0.35 | 99 | 1012.1 |
| 20260510030757 | 48 | 283 | 1.0 | 2.0 | 0.00 | 0.35 | 0.35 | 99 | 1012.2 |
| 20260510030254 | 47 | 348 | 0.0 | 0.0 | 0.00 | 0.35 | 0.35 | 99 | 1012.1 |
| 20260510025751 | 47 | 224 | 0.0 | 0.0 | 0.00 | 0.35 | 0.35 | 99 | 1012.1 |
| 20260510025249 | 47 | 105 | 2.0 | 2.0 | 0.00 | 0.35 | 0.35 | 99 | 1011.9 |
| 20260510024745 | 47 | 60 | 0.0 | 0.0 | 0.00 | 0.35 | 0.35 | 99 | 1012.1 |
| 20260510024242 | 47 | 76 | 0.0 | 1.0 | 0.00 | 0.35 | 0.35 | 99 | 1012.2 |
| 20260510023738 | 46 | 315 | 0.0 | 0.0 | 0.00 | 0.35 | 0.35 | 99 | 1012.2 |
| 20260510023235 | 47 | 130 | 0.0 | 0.0 | 0.00 | 0.35 | 0.35 | 99 | 1012.1 |
| 20260510022732 | 47 | 124 | 0.0 | 1.0 | 0.00 | 0.35 | 0.35 | 99 | 1012.1 |
| 20260510022231 | 47 | 32 | 0.0 | 0.0 | 0.00 | 0.35 | 0.35 | 99 | 1012.2 |
| 20260510021726 | 47 | 32 | 0.0 | 0.0 | 0.00 | 0.35 | 0.35 | 99 | 1012.1 |
| 20260510021224 | 47 | 89 | 0.0 | 0.0 | 0.00 | 0.35 | 0.35 | 99 | 1011.9 |
| 20260510020719 | 47 | 126 | 0.0 | 0.0 | 0.00 | 0.35 | 0.35 | 99 | 1011.9 |
| 20260510020219 | 47 | 32 | 0.0 | 1.0 | 0.00 | 0.35 | 0.35 | 99 | 1012.0 |
| 20260510015715 | 47 | 32 | 0.0 | 0.0 | 0.00 | 0.35 | 0.35 | 99 | 1011.9 |
| 20260510015212 | 48 | 44 | 1.0 | 2.0 | 0.00 | 0.35 | 0.35 | 99 | 1011.9 |
| 20260510014707 | 47 | 44 | 0.0 | 1.0 | 0.00 | 0.35 | 0.35 | 99 | 1012.0 |
| 20260510014206 | 47 | 257 | 0.0 | 0.0 | 0.00 | 0.35 | 0.35 | 99 | 1012.1 |
| 20260510013706 | 47 | 257 | 0.0 | 1.0 | 0.00 | 0.35 | 0.35 | 99 | 1012.0 |
| 20260510013202 | 48 | 293 | 0.0 | 0.0 | 0.00 | 0.35 | 0.35 | 99 | 1011.9 |
| 20260510012701 | 48 | 329 | 0.0 | 1.0 | 0.00 | 0.35 | 0.35 | 99 | 1011.6 |
| 20260510012157 | 48 | 53 | 1.0 | 1.0 | 0.00 | 0.35 | 0.35 | 99 | 1011.7 |
| 20260510011652 | 49 | 147 | 0.0 | 0.0 | 0.00 | 0.35 | 0.35 | 99 | 1012.0 |
| 20260510011148 | 49 | 282 | 1.0 | 1.0 | 0.00 | 0.35 | 0.35 | 99 | 1012.0 |
| 20260510010644 | 49 | 221 | 1.0 | 1.0 | 0.00 | 0.35 | 0.35 | 99 | 1011.9 |
| 20260510010142 | 49 | 345 | 0.0 | 1.0 | 0.00 | 0.35 | 0.35 | 99 | 1011.8 |
| 20260510005637 | 49 | 348 | 0.0 | 1.0 | 0.00 | 0.35 | 0.35 | 99 | 1011.6 |
| 20260510005135 | 49 | 52 | 0.0 | 1.0 | 0.00 | 0.35 | 0.35 | 99 | 1011.6 |
| 20260510004633 | 49 | 110 | 0.0 | 0.0 | 0.00 | 0.35 | 0.35 | 99 | 1011.6 |
| 20260510004131 | 49 | 116 | 0.0 | 0.0 | 0.00 | 0.35 | 0.35 | 99 | 1011.6 |
| 20260510003627 | 49 | 324 | 0.0 | 2.0 | 0.00 | 0.35 | 0.35 | 99 | 1011.4 |
| 20260510003123 | 50 | 324 | 0.0 | 2.0 | 0.00 | 0.35 | 0.35 | 99 | 1011.4 |
| 20260510002623 | 50 | 235 | 0.0 | 1.0 | 0.00 | 0.35 | 0.35 | 99 | 1011.2 |
| 20260510002121 | 50 | 233 | 0.0 | 2.0 | 0.00 | 0.35 | 0.35 | 99 | 1011.3 |
| 20260510001617 | 50 | 256 | 0.0 | 2.0 | 0.00 | 0.35 | 0.35 | 99 | 1011.2 |
| 20260510001116 | 51 | 198 | 0.0 | 1.0 | 0.00 | 0.35 | 0.35 | 99 | 1011.3 |
| 20260510000616 | 51 | 305 | 2.0 | 2.0 | 0.00 | 0.35 | 0.35 | 99 | 1011.2 |
| 20260510000114 | 51 | 233 | 0.0 | 0.0 | 0.00 | 0.35 | 0.35 | 99 | 1011.3 |
| 20260509235610 | 52 | 224 | 0.0 | 0.0 | 0.00 | 0.35 | 0.35 | 99 | 1011.1 |
| 20260509235107 | 52 | 119 | 1.0 | 1.0 | 0.00 | 0.35 | 0.35 | 99 | 1011.1 |
| 20260509234603 | 52 | 212 | 0.0 | 2.0 | 0.00 | 0.35 | 0.35 | 99 | 1011.1 |
| 20260509234101 | 52 | 210 | 0.0 | 2.0 | 0.00 | 0.35 | 0.35 | 99 | 1011.0 |
| 20260509233558 | 52 | 234 | 2.0 | 2.0 | 0.00 | 0.35 | 0.35 | 99 | 1010.5 |
| 20260509233055 | 52 | 245 | 2.0 | 2.0 | 0.00 | 0.35 | 0.35 | 99 | 1010.5 |
| 20260509232551 | 52 | 208 | 2.0 | 3.0 | 0.00 | 0.35 | 0.35 | 99 | 1010.6 |
| 20260509232049 | 52 | 226 | 0.0 | 2.0 | 0.00 | 0.35 | 0.35 | 99 | 1010.5 |
| 20260509231545 | 52 | 246 | 0.0 | 2.0 | 0.00 | 0.35 | 0.35 | 98 | 1010.5 |
| 20260509231043 | 53 | 315 | 0.0 | 2.0 | 0.00 | 0.35 | 0.35 | 98 | 1010.6 |
| 20260509230539 | 53 | 232 | 0.0 | 1.0 | 0.00 | 0.35 | 0.35 | 98 | 1010.7 |
| 20260509230037 | 53 | 146 | 1.0 | 4.0 | 0.00 | 0.35 | 0.35 | 98 | 1010.6 |
| 20260509225532 | 53 | 258 | 3.0 | 4.0 | 0.00 | 0.35 | 0.35 | 98 | 1010.4 |
| 20260509225027 | 54 | 55 | 0.0 | 2.0 | 0.00 | 0.35 | 0.35 | 98 | 1010.6 |
| 20260509224523 | 54 | 52 | 1.0 | 2.0 | 0.00 | 0.35 | 0.35 | 98 | 1010.6 |
| 20260509224020 | 54 | 49 | 0.0 | 3.0 | 0.00 | 0.35 | 0.35 | 98 | 1010.8 |
| 20260509223517 | 54 | 223 | 0.0 | 2.0 | 0.00 | 0.35 | 0.35 | 98 | 1010.6 |
| 20260509223015 | 53 | 235 | 0.0 | 2.0 | 0.00 | 0.35 | 0.35 | 98 | 1010.7 |
| 20260509222511 | 53 | 48 | 0.0 | 2.0 | 0.00 | 0.35 | 0.35 | 98 | 1010.8 |
| 20260509222006 | 53 | 155 | 0.0 | 0.0 | 0.00 | 0.35 | 0.35 | 98 | 1010.8 |
| 20260509221502 | 53 | 235 | 0.0 | 1.0 | 0.00 | 0.35 | 0.35 | 98 | 1011.1 |
| 20260509220958 | 53 | 280 | 0.0 | 4.0 | 0.00 | 0.35 | 0.35 | 98 | 1011.0 |
| 20260509220455 | 53 | 203 | 1.0 | 2.0 | 0.00 | 0.35 | 0.35 | 98 | 1011.0 |
| 20260509215950 | 53 | 240 | 1.0 | 3.0 | 0.00 | 0.35 | 0.35 | 97 | 1010.8 |
| 20260509215446 | 53 | 225 | 2.0 | 3.0 | 0.00 | 0.35 | 0.35 | 98 | 1010.8 |
| 20260509214944 | 53 | 129 | 0.0 | 2.0 | 0.00 | 0.35 | 0.35 | 98 | 1011.1 |
| 20260509214441 | 53 | 211 | 0.0 | 3.0 | 0.00 | 0.35 | 0.35 | 98 | 1011.0 |
| 20260509213938 | 53 | 198 | 1.0 | 3.0 | 0.00 | 0.35 | 0.35 | 99 | 1011.0 |
| 20260509213433 | 53 | 260 | 2.0 | 4.0 | 0.00 | 0.35 | 0.35 | 99 | 1011.1 |
| 20260509212931 | 53 | 215 | 1.0 | 2.0 | 0.00 | 0.35 | 0.35 | 99 | 1011.0 |
| 20260509212429 | 52 | 234 | 0.0 | 4.0 | 0.00 | 0.35 | 0.35 | 99 | 1011.0 |
| 20260509211924 | 52 | 248 | 2.0 | 2.0 | 0.02 | 0.35 | 0.35 | 99 | 1011.1 |
| 20260509211420 | 52 | 249 | 0.0 | 1.0 | 0.05 | 0.35 | 0.35 | 99 | 1011.0 |
| 20260509210917 | 51 | 141 | 0.0 | 2.0 | 0.05 | 0.34 | 0.34 | 99 | 1011.2 |
| 20260509210414 | 51 | 77 | 2.0 | 2.0 | 0.07 | 0.34 | 0.34 | 99 | 1011.3 |
| 20260509205910 | 51 | 332 | 2.0 | 2.0 | 0.07 | 0.34 | 0.34 | 99 | 1011.2 |
| 20260509205409 | 52 | 269 | 0.0 | 2.0 | 0.05 | 0.33 | 0.33 | 99 | 1011.4 |
| 20260509204906 | 52 | 248 | 1.0 | 2.0 | 0.05 | 0.32 | 0.32 | 99 | 1011.4 |
| 20260509204402 | 52 | 233 | 0.0 | 3.0 | 0.02 | 0.32 | 0.32 | 99 | 1011.5 |
| 20260509203859 | 52 | 244 | 2.0 | 2.0 | 0.02 | 0.32 | 0.32 | 99 | 1011.3 |
| 20260509203355 | 52 | 233 | 0.0 | 4.0 | 0.00 | 0.31 | 0.31 | 99 | 1011.3 |
| 20260509202853 | 52 | 228 | 0.0 | 2.0 | 0.00 | 0.31 | 0.31 | 99 | 1011.3 |
| 20260509202348 | 53 | 222 | 0.0 | 2.0 | 0.00 | 0.31 | 0.31 | 99 | 1011.5 |
| 20260509201843 | 52 | 151 | 1.0 | 1.0 | 0.00 | 0.31 | 0.31 | 99 | 1011.4 |
| 20260509201339 | 51 | 0 | 1.0 | 2.0 | 0.00 | 0.31 | 0.31 | 99 | 1011.5 |
| 20260509200836 | 52 | 287 | 2.0 | 3.0 | 0.00 | 0.31 | 0.31 | 99 | 1011.7 |
| 20260509200331 | 52 | 195 | 0.0 | 3.0 | 0.02 | 0.31 | 0.31 | 99 | 1011.8 |
| 20260509195828 | 51 | 213 | 1.0 | 2.0 | 0.05 | 0.31 | 0.31 | 99 | 1011.8 |
| 20260509195328 | 51 | 243 | 2.0 | 2.0 | 0.05 | 0.31 | 0.31 | 99 | 1011.9 |
| 20260509194827 | 51 | 233 | 0.0 | 3.0 | 0.05 | 0.30 | 0.30 | 99 | 1012.0 |
| 20260509194324 | 51 | 244 | 1.0 | 2.0 | 0.05 | 0.30 | 0.30 | 99 | 1012.0 |
| 20260509193821 | 51 | 252 | 2.0 | 2.0 | 0.02 | 0.29 | 0.29 | 99 | 1012.2 |
| 20260509193321 | 51 | 224 | 0.0 | 3.0 | 0.02 | 0.29 | 0.29 | 99 | 1012.3 |
| 20260509192817 | 51 | 244 | 2.0 | 2.0 | 0.02 | 0.29 | 0.29 | 99 | 1012.3 |
| 20260509192313 | 51 | 248 | 2.0 | 2.0 | 0.02 | 0.29 | 0.29 | 99 | 1012.4 |
| 20260509191808 | 51 | 232 | 2.0 | 3.0 | 0.05 | 0.29 | 0.29 | 99 | 1012.5 |
| 20260509191305 | 50 | 280 | 3.0 | 6.0 | 0.05 | 0.28 | 0.28 | 99 | 1012.4 |
| 20260509190800 | 51 | 251 | 3.0 | 7.0 | 0.09 | 0.28 | 0.28 | 99 | 1012.5 |
| 20260509190258 | 50 | 250 | 5.0 | 10.0 | 0.12 | 0.28 | 0.28 | 99 | 1012.5 |
| 20260509185755 | 51 | 292 | 3.0 | 4.0 | 0.09 | 0.26 | 0.26 | 99 | 1012.6 |
| 20260509185251 | 51 | 258 | 2.0 | 4.0 | 0.07 | 0.26 | 0.26 | 99 | 1012.7 |
| 20260509184749 | 51 | 240 | 3.0 | 4.0 | 0.07 | 0.25 | 0.25 | 99 | 1012.6 |
| 20260509184246 | 51 | 263 | 3.0 | 5.0 | 0.07 | 0.24 | 0.24 | 99 | 1012.6 |
| 20260509183742 | 51 | 231 | 3.0 | 6.0 | 0.05 | 0.24 | 0.24 | 99 | 1012.6 |
| 20260509183238 | 51 | 208 | 1.0 | 4.0 | 0.09 | 0.23 | 0.23 | 99 | 1012.9 |
| 20260509182733 | 51 | 237 | 2.0 | 4.0 | 0.12 | 0.22 | 0.22 | 99 | 1012.7 |
| 20260509182231 | 51 | 222 | 2.0 | 4.0 | 0.14 | 0.22 | 0.22 | 99 | 1012.6 |
| 20260509181728 | 51 | 193 | 0.0 | 3.0 | 0.12 | 0.20 | 0.20 | 99 | 1012.8 |
| 20260509181226 | 51 | 198 | 3.0 | 5.0 | 0.09 | 0.19 | 0.19 | 99 | 1012.8 |
| 20260509180723 | 51 | 238 | 2.0 | 3.0 | 0.07 | 0.18 | 0.18 | 99 | 1012.9 |
| 20260509180219 | 51 | 219 | 2.0 | 8.0 | 0.05 | 0.18 | 0.18 | 99 | 1012.8 |
| 20260509175716 | 51 | 238 | 1.0 | 6.0 | 0.02 | 0.17 | 0.17 | 99 | 1012.6 |
| 20260509175212 | 51 | 233 | 3.0 | 3.0 | 0.00 | 0.17 | 0.17 | 99 | 1012.7 |
| 20260509174707 | 51 | 135 | 0.0 | 3.0 | 0.02 | 0.17 | 0.17 | 99 | 1012.8 |
| 20260509174203 | 51 | 230 | 2.0 | 2.0 | 0.02 | 0.17 | 0.17 | 99 | 1012.7 |
| 20260509173659 | 51 | 269 | 0.0 | 4.0 | 0.02 | 0.17 | 0.17 | 99 | 1012.5 |
| 20260509173155 | 51 | 250 | 3.0 | 5.0 | 0.02 | 0.17 | 0.17 | 99 | 1012.7 |
| 20260509172651 | 51 | 221 | 1.0 | 6.0 | 0.02 | 0.16 | 0.16 | 99 | 1012.6 |
| 20260509172148 | 51 | 196 | 1.0 | 4.0 | 0.02 | 0.16 | 0.16 | 99 | 1012.5 |
| 20260509171643 | 51 | 226 | 2.0 | 4.0 | 0.00 | 0.16 | 0.16 | 99 | 1012.6 |
| 20260509171140 | 51 | 235 | 1.0 | 4.0 | 0.00 | 0.16 | 0.16 | 99 | 1012.6 |
| 20260509170637 | 51 | 227 | 1.0 | 5.0 | 0.02 | 0.16 | 0.16 | 99 | 1012.6 |
| 20260509170133 | 51 | 290 | 2.0 | 2.0 | 0.02 | 0.16 | 0.16 | 99 | 1012.6 |
| 20260509165631 | 51 | 229 | 2.0 | 3.0 | 0.00 | 0.15 | 0.15 | 99 | 1012.6 |
| 20260509165127 | 51 | 244 | 2.0 | 2.0 | 0.00 | 0.15 | 0.15 | 99 | 1012.7 |
| 20260509164623 | 50 | 235 | 0.0 | 3.0 | 0.02 | 0.15 | 0.15 | 99 | 1012.8 |
| 20260509164119 | 51 | 238 | 2.0 | 2.0 | 0.00 | 0.15 | 0.15 | 99 | 1012.7 |
| 20260509163617 | 51 | 280 | 0.0 | 2.0 | 0.00 | 0.15 | 0.15 | 99 | 1012.7 |
| 20260509163112 | 50 | 244 | 3.0 | 3.0 | 0.00 | 0.15 | 0.15 | 99 | 1012.6 |
| 20260509162610 | 50 | 289 | 2.0 | 4.0 | 0.00 | 0.15 | 0.15 | 99 | 1012.5 |
| 20260509162106 | 50 | 136 | 1.0 | 4.0 | 0.00 | 0.15 | 0.15 | 99 | 1012.5 |
| 20260509161602 | 50 | 257 | 0.0 | 2.0 | 0.00 | 0.15 | 0.15 | 99 | 1012.5 |
| 20260509161102 | 50 | 215 | 0.0 | 2.0 | 0.02 | 0.15 | 0.15 | 99 | 1012.6 |
| 20260509160558 | 50 | 89 | 0.0 | 2.0 | 0.02 | 0.15 | 0.15 | 99 | 1012.7 |
| 20260509160054 | 50 | 48 | 0.0 | 2.0 | 0.00 | 0.15 | 0.15 | 99 | 1013.0 |
| 20260509155551 | 50 | 233 | 1.0 | 3.0 | 0.00 | 0.15 | 0.15 | 99 | 1013.3 |
| 20260509155047 | 50 | 91 | 1.0 | 2.0 | 0.02 | 0.15 | 0.15 | 99 | 1013.4 |
| 20260509154543 | 50 | 352 | 0.0 | 2.0 | 0.02 | 0.15 | 0.15 | 99 | 1013.3 |
| 20260509154041 | 50 | 271 | 1.0 | 2.0 | 0.02 | 0.14 | 0.14 | 99 | 1013.4 |
| 20260509153537 | 50 | 243 | 2.0 | 3.0 | 0.02 | 0.14 | 0.14 | 99 | 1013.5 |
| 20260509153034 | 50 | 304 | 0.0 | 2.0 | 0.02 | 0.14 | 0.14 | 99 | 1013.5 |
| 20260509152530 | 49 | 230 | 2.0 | 2.0 | 0.02 | 0.13 | 0.13 | 98 | 1013.6 |
| 20260509152027 | 49 | 267 | 2.0 | 3.0 | 0.05 | 0.13 | 0.13 | 98 | 1013.5 |
| 20260509151523 | 49 | 249 | 2.0 | 2.0 | 0.05 | 0.13 | 0.13 | 98 | 1013.3 |
| 20260509151021 | 49 | 329 | 0.0 | 4.0 | 0.02 | 0.13 | 0.13 | 98 | 1013.3 |
| 20260509150518 | 49 | 328 | 2.0 | 2.0 | 0.02 | 0.12 | 0.12 | 98 | 1013.2 |
| 20260509150017 | 49 | 185 | 0.0 | 2.0 | 0.05 | 0.12 | 0.12 | 97 | 1013.3 |
| 20260509145512 | 49 | 232 | 2.0 | 3.0 | 0.02 | 0.12 | 0.12 | 97 | 1013.4 |
| 20260509145007 | 49 | 304 | 0.0 | 2.0 | 0.00 | 0.11 | 0.11 | 97 | 1013.1 |
| 20260509144505 | 49 | 237 | 3.0 | 4.0 | 0.00 | 0.11 | 0.11 | 97 | 1013.4 |
| 20260509144002 | 49 | 294 | 2.0 | 3.0 | 0.00 | 0.11 | 0.11 | 97 | 1013.4 |
| 20260509143459 | 49 | 116 | 0.0 | 2.0 | 0.02 | 0.11 | 0.11 | 97 | 1013.3 |
| 20260509142955 | 49 | 254 | 2.0 | 2.0 | 0.02 | 0.11 | 0.11 | 97 | 1013.2 |
| 20260509142452 | 49 | 263 | 1.0 | 2.0 | 0.00 | 0.11 | 0.11 | 97 | 1013.0 |
| 20260509141948 | 49 | 32 | 0.0 | 0.0 | 0.00 | 0.11 | 0.11 | 98 | 1013.1 |
| 20260509141444 | 49 | 351 | 1.0 | 1.0 | 0.02 | 0.11 | 0.11 | 98 | 1013.2 |
| 20260509140941 | 49 | 224 | 0.0 | 1.0 | 0.02 | 0.11 | 0.11 | 98 | 1013.1 |
| 20260509140437 | 49 | 228 | 0.0 | 2.0 | 0.02 | 0.11 | 0.11 | 98 | 1013.2 |
| 20260509135936 | 48 | 103 | 0.0 | 2.0 | 0.05 | 0.11 | 0.11 | 98 | 1013.2 |
| 20260509135433 | 48 | 269 | 0.0 | 0.0 | 0.02 | 0.10 | 0.10 | 98 | 1013.1 |
| 20260509134930 | 48 | 15 | 1.0 | 2.0 | 0.00 | 0.10 | 0.10 | 98 | 1013.1 |
| 20260509134427 | 48 | 1 | 0.0 | 1.0 | 0.02 | 0.10 | 0.10 | 98 | 1013.3 |
| 20260509133925 | 48 | 258 | 1.0 | 2.0 | 0.02 | 0.10 | 0.10 | 98 | 1013.5 |
| 20260509133421 | 48 | 110 | 2.0 | 2.0 | 0.00 | 0.09 | 0.09 | 98 | 1013.6 |
| 20260509132920 | 48 | 112 | 1.0 | 2.0 | 0.00 | 0.09 | 0.09 | 98 | 1013.5 |
| 20260509132417 | 48 | 10 | 0.0 | 2.0 | 0.02 | 0.09 | 0.09 | 99 | 1013.6 |
| 20260509131914 | 48 | 260 | 3.0 | 3.0 | 0.02 | 0.09 | 0.09 | 98 | 1013.5 |
| 20260509131411 | 48 | 296 | 1.0 | 2.0 | 0.00 | 0.09 | 0.09 | 99 | 1013.4 |
| 20260509130908 | 47 | 168 | 1.0 | 1.0 | 0.00 | 0.09 | 0.09 | 99 | 1013.6 |
| 20260509130403 | 47 | 318 | 1.0 | 1.0 | 0.00 | 0.09 | 0.09 | 99 | 1013.7 |
| 20260509125901 | 47 | 110 | 0.0 | 1.0 | 0.02 | 0.09 | 0.09 | 99 | 1013.5 |
| 20260509125357 | 47 | 344 | 0.0 | 1.0 | 0.02 | 0.09 | 0.09 | 99 | 1013.4 |
| 20260509124853 | 47 | 40 | 1.0 | 2.0 | 0.00 | 0.09 | 0.09 | 99 | 1013.5 |
| 20260509124350 | 47 | 240 | 2.0 | 3.0 | 0.02 | 0.09 | 0.09 | 99 | 1013.7 |
| 20260509123848 | 46 | 219 | 1.0 | 3.0 | 0.00 | 0.08 | 0.08 | 99 | 1013.7 |
| 20260509123345 | 46 | 224 | 0.0 | 2.0 | 0.00 | 0.08 | 0.08 | 99 | 1013.5 |
| 20260509122841 | 46 | 251 | 3.0 | 4.0 | 0.00 | 0.08 | 0.08 | 99 | 1013.3 |
| 20260509122338 | 46 | 288 | 1.0 | 1.0 | 0.00 | 0.08 | 0.08 | 99 | 1013.2 |
| 20260509121835 | 46 | 120 | 1.0 | 2.0 | 0.00 | 0.08 | 0.08 | 99 | 1013.3 |
| 20260509121332 | 46 | 309 | 1.0 | 2.0 | 0.00 | 0.08 | 0.08 | 99 | 1013.2 |
| 20260509120830 | 46 | 260 | 1.0 | 3.0 | 0.00 | 0.08 | 0.08 | 99 | 1013.1 |
| 20260509120327 | 46 | 66 | 2.0 | 3.0 | 0.02 | 0.08 | 0.08 | 99 | 1013.2 |
| 20260509115825 | 46 | 282 | 2.0 | 2.0 | 0.02 | 0.08 | 0.08 | 99 | 1013.2 |
| 20260509115322 | 46 | 329 | 0.0 | 2.0 | 0.00 | 0.08 | 0.08 | 99 | 1013.3 |
| 20260509114820 | 46 | 250 | 2.0 | 3.0 | 0.00 | 0.08 | 0.08 | 99 | 1013.4 |
| 20260509114318 | 46 | 280 | 1.0 | 2.0 | 0.00 | 0.08 | 0.08 | 99 | 1013.4 |
| 20260509113818 | 46 | 97 | 2.0 | 2.0 | 0.00 | 0.08 | 0.08 | 99 | 1013.3 |
| 20260509113314 | 46 | 250 | 3.0 | 3.0 | 0.00 | 0.08 | 0.08 | 99 | 1013.4 |
| 20260509112811 | 46 | 141 | 2.0 | 3.0 | 0.02 | 0.08 | 0.08 | 99 | 1013.3 |
| 20260509112308 | 46 | 230 | 2.0 | 4.0 | 0.02 | 0.08 | 0.08 | 99 | 1013.3 |
| 20260509111805 | 46 | 297 | 0.0 | 2.0 | 0.00 | 0.07 | 0.07 | 99 | 1013.6 |
| 20260509111301 | 46 | 320 | 1.0 | 2.0 | 0.02 | 0.07 | 0.07 | 99 | 1013.5 |
| 20260509110759 | 46 | 54 | 0.0 | 2.0 | 0.02 | 0.07 | 0.07 | 99 | 1013.6 |
| 20260509110255 | 45 | 287 | 0.0 | 3.0 | 0.00 | 0.07 | 0.07 | 99 | 1013.6 |
| 20260509105754 | 45 | 27 | 1.0 | 2.0 | 0.00 | 0.07 | 0.07 | 99 | 1013.4 |
| 20260509105251 | 45 | 269 | 0.0 | 2.0 | 0.00 | 0.07 | 0.07 | 99 | 1013.5 |
| 20260509104747 | 45 | 287 | 0.0 | 2.0 | 0.00 | 0.07 | 0.07 | 99 | 1013.4 |
| 20260509104244 | 45 | 250 | 0.0 | 3.0 | 0.02 | 0.07 | 0.07 | 99 | 1013.4 |
| 20260509103743 | 45 | 126 | 0.0 | 2.0 | 0.02 | 0.07 | 0.07 | 99 | 1013.1 |
| 20260509103240 | 45 | 292 | 0.0 | 2.0 | 0.00 | 0.07 | 0.07 | 99 | 1013.4 |
| 20260509102738 | 44 | 313 | 1.0 | 2.0 | 0.00 | 0.07 | 0.07 | 99 | 1013.2 |
| 20260509102234 | 44 | 327 | 1.0 | 2.0 | 0.00 | 0.07 | 0.07 | 99 | 1013.3 |
| 20260509101731 | 44 | 248 | 0.0 | 2.0 | 0.00 | 0.07 | 0.07 | 99 | 1013.3 |
| 20260509101227 | 44 | 269 | 0.0 | 2.0 | 0.00 | 0.07 | 0.07 | 99 | 1013.2 |
| 20260509100725 | 44 | 39 | 0.0 | 1.0 | 0.00 | 0.07 | 0.07 | 99 | 1013.0 |
| 20260509100222 | 44 | 147 | 0.0 | 2.0 | 0.00 | 0.07 | 0.07 | 99 | 1013.2 |
| 20260509095719 | 44 | 299 | 0.0 | 2.0 | 0.00 | 0.07 | 0.07 | 99 | 1013.3 |
| 20260509095216 | 44 | 335 | 0.0 | 1.0 | 0.00 | 0.07 | 0.07 | 99 | 1013.3 |
| 20260509094713 | 44 | 105 | 0.0 | 2.0 | 0.00 | 0.07 | 0.07 | 99 | 1013.5 |
| 20260509094210 | 44 | 289 | 0.0 | 2.0 | 0.00 | 0.07 | 0.07 | 99 | 1013.5 |
| 20260509093708 | 44 | 55 | 0.0 | 2.0 | 0.00 | 0.07 | 0.07 | 99 | 1013.4 |
| 20260509093204 | 44 | 89 | 0.0 | 2.0 | 0.00 | 0.07 | 0.07 | 99 | 1013.4 |
| 20260509092703 | 44 | 49 | 0.0 | 2.0 | 0.00 | 0.07 | 0.07 | 99 | 1013.5 |
| 20260509092201 | 44 | 285 | 1.0 | 2.0 | 0.00 | 0.07 | 0.07 | 99 | 1013.7 |
| 20260509091659 | 44 | 264 | 1.0 | 2.0 | 0.00 | 0.07 | 0.07 | 99 | 1013.7 |
| 20260509091154 | 44 | 272 | 0.0 | 2.0 | 0.00 | 0.07 | 0.07 | 99 | 1013.4 |
| 20260509090652 | 44 | 193 | 0.0 | 2.0 | 0.00 | 0.07 | 0.07 | 99 | 1013.7 |
| 20260509090149 | 44 | 9 | 0.0 | 3.0 | 0.00 | 0.07 | 0.07 | 99 | 1013.7 |
| 20260509085647 | 44 | 276 | 1.0 | 2.0 | 0.00 | 0.07 | 0.07 | 99 | 1013.7 |
| 20260509085143 | 44 | 302 | 0.0 | 2.0 | 0.00 | 0.07 | 0.07 | 99 | 1013.3 |
| 20260509084640 | 44 | 59 | 0.0 | 1.0 | 0.00 | 0.07 | 0.07 | 99 | 1013.5 |
| 20260509084137 | 44 | 358 | 0.0 | 1.0 | 0.00 | 0.07 | 0.07 | 99 | 1013.6 |
| 20260509083634 | 44 | 315 | 0.0 | 0.0 | 0.00 | 0.07 | 0.07 | 99 | 1013.6 |
| 20260509083131 | 44 | 197 | 0.0 | 1.0 | 0.00 | 0.07 | 0.07 | 99 | 1013.7 |
| 20260509082628 | 44 | 306 | 0.0 | 1.0 | 0.00 | 0.07 | 0.07 | 99 | 1014.1 |
| 20260509082125 | 44 | 135 | 0.0 | 0.0 | 0.00 | 0.07 | 0.07 | 99 | 1013.7 |
| 20260509081622 | 44 | 72 | 0.0 | 0.0 | 0.00 | 0.07 | 0.07 | 99 | 1013.9 |
| 20260509081119 | 44 | 315 | 0.0 | 0.0 | 0.00 | 0.07 | 0.07 | 99 | 1013.9 |
| 20260509080617 | 44 | 293 | 0.0 | 2.0 | 0.00 | 0.07 | 0.07 | 99 | 1014.0 |
| 20260509080115 | 44 | 269 | 0.0 | 1.0 | 0.00 | 0.07 | 0.07 | 99 | 1013.7 |
| 20260509075613 | 44 | 9 | 0.0 | 1.0 | 0.00 | 0.07 | 0.07 | 99 | 1013.6 |
| 20260509075110 | 44 | 352 | 0.0 | 1.0 | 0.00 | 0.07 | 0.07 | 99 | 1013.5 |
| 20260509074607 | 44 | 237 | 0.0 | 1.0 | 0.00 | 0.07 | 0.07 | 99 | 1013.6 |
| 20260509074103 | 44 | 212 | 0.0 | 0.0 | 0.00 | 0.07 | 0.07 | 99 | 1013.4 |
| 20260509073600 | 44 | 236 | 1.0 | 2.0 | 0.00 | 0.07 | 0.07 | 99 | 1013.6 |
| 20260509073056 | 44 | 241 | 0.0 | 2.0 | 0.00 | 0.07 | 0.07 | 99 | 1013.4 |
| 20260509072553 | 44 | 326 | 0.0 | 0.0 | 0.00 | 0.07 | 0.07 | 99 | 1013.3 |
| 20260509072050 | 44 | 60 | 0.0 | 0.0 | 0.02 | 0.07 | 0.07 | 99 | 1013.4 |
| 20260509071547 | 44 | 60 | 0.0 | 0.0 | 0.02 | 0.07 | 0.07 | 99 | 1013.5 |